DW3383 Weather Reports


Display with metric or nautical units.
time (UTC)temp
F
wind
direction
speed
MPH
gust
MPH
rain 1hr
in
rain 24hr
in
rain mn
in
humidity
%
barometer
mb
20240222100804 35 283 2.0 7.0 0.00 0.00 0.00 61 1003.0
20240222100304 35 288 3.0 8.0 0.00 0.00 0.00 61 1002.9
20240222090804 34 27 2.0 6.0 0.00 0.00 0.00 66 1002.7
20240222090304 34 320 3.0 7.0 0.00 0.00 0.00 67 1002.6
20240222080804 34 303 3.0 9.0 0.00 0.00 0.00 66 1003.1
20240222080303 34 284 2.0 7.0 0.00 0.00 0.00 65 1003.0
20240222070826 35 81 2.0 7.0 0.00 0.00 0.00 64 1003.0
20240222070304 35 326 3.0 7.0 0.00 0.00 0.00 66 1002.9
20240222060804 34 345 2.0 6.0 0.00 0.00 0.00 68 1003.3
20240222060303 34 16 2.0 7.0 0.00 0.00 0.00 70 1003.4
20240222050304 35 310 2.0 7.0 0.00 0.00 0.00 67 1003.9
20240222040804 35 94 2.0 5.0 0.00 0.00 0.00 66 1003.7
20240222040304 35 283 2.0 6.0 0.00 0.00 0.00 65 1003.6
20240222030803 37 287 2.0 3.0 0.00 0.00 0.00 61 1003.6
20240222030303 37 282 2.0 5.0 0.00 0.00 0.00 60 1003.6
20240222020804 40 282 2.0 3.0 0.00 0.00 0.00 51 1003.0
20240222020304 40 271 2.0 9.0 0.00 0.00 0.00 49 1003.0
20240222010804 42 275 5.0 7.0 0.00 0.00 0.00 52 1002.0
20240222010303 42 278 3.0 9.0 0.00 0.00 0.00 50 1002.1
20240222000803 43 302 4.0 9.0 0.00 0.00 0.00 49 1001.5
20240222000306 44 335 4.0 9.0 0.00 0.00 0.00 48 1001.5
20240221230803 43 274 3.0 5.0 0.00 0.00 0.00 49 1001.1
20240221220804 42 275 3.0 6.0 0.00 0.00 0.00 54 1001.2
20240221220304 41 105 2.0 8.0 0.00 0.00 0.00 53 1001.3
20240221210804 40 309 2.0 8.0 0.00 0.00 0.00 58 1001.6
20240221210304 40 0 2.0 7.0 0.00 0.00 0.00 58 1001.6
20240221200804 37 294 3.0 5.0 0.00 0.00 0.00 63 1001.6
20240221200304 37 316 3.0 8.0 0.00 0.00 0.00 63 1001.7
20240221190804 36 295 2.0 7.0 0.00 0.00 0.00 67 1001.7
20240221180804 33 2 4.0 8.0 0.00 0.00 0.00 71 1001.7
20240221180304 33 305 3.0 7.0 0.00 0.00 0.00 72 1001.8
20240221170804 32 21 3.0 6.0 0.00 0.00 0.00 74 1001.6
20240221170304 32 32 3.0 7.0 0.00 0.00 0.00 74 1001.6
20240221160805 24 310 2.0 5.0 0.00 0.00 0.00 86 1001.6
20240221160304 22 298 3.0 6.0 0.00 0.00 0.00 92 1001.7
20240221150804 22 285 1.0 2.0 0.00 0.00 0.00 89 1001.4
20240221150304 22 289 1.0 5.0 0.00 0.00 0.00 90 1001.4
20240221130802 24 279 0.0 0.0 0.00 0.00 0.00 86 1001.4
20240221130302 24 279 0.0 3.0 0.00 0.00 0.00 85 1001.5
20240221120802 27 301 1.0 3.0 0.00 0.00 0.00 83 1001.0
20240221120304 27 280 2.0 7.0 0.00 0.00 0.00 81 1000.8
20240221110803 32 284 2.0 5.0 0.00 0.00 0.00 74 1000.0